Retour au catalogue

STARLINK-31011

ActifCommunicationsVLEO
NORAD 58517·PAYLOAD·🇺🇸 United States

Lancé Dec 7, 2023 depuis Cape Canaveral Space Force Station

Loading…

Prochains Passages (prochaines 24 heures)

TLE

FraisSource: CelesTrak SupGP

Époque: Sep 14, 2026, 22:26 UTC

1 58517C 23191K   26257.93520833  .00010093  00000+0  36564-3 0  2573
2 58517  42.9993 114.2948 0001413 271.2835 265.0161 15.27567641    16

Suivez STARLINK-31011 en temps réel avec AllMySat

Download on the App Store